Location: Unspecified
(0.0000°N, 0.0000°E)
Time: 10:58:32
(UTC+00:00)

N. Korean satellite - Visible Passes

Search period start: 29 May 2020 00:00
Search period end: 08 June 2020 00:00
Orbit: 455 x 505 km, 97.2° (Epoch: 29 May)

Date Brightness Start Highest point End Pass type
(mag) Time Alt. Az. Time Alt. Az. Time Alt. Az.
29 May 6.8 05:30:11 10° N 05:33:46 53° W 05:37:20 10° SSW visible
30 May 7.5 05:04:33 10° NNE 05:08:06 51° E 05:11:38 10° S visible
31 May 9.3 04:39:47 10° NE 04:42:26 19° E 04:45:04 10° SSE visible
02 Jun 6.5 05:20:34 10° N 05:24:12 80° W 05:27:48 10° SSW visible
03 Jun 8.2 04:55:12 10° NE 04:58:31 34° E 05:01:49 10° SSE visible
04 Jun 9.6 04:31:00 10° ENE 04:32:50 13° E 04:34:40 10° SE visible
06 Jun 6.9 05:11:00 10° NNE 05:14:35 68° E 05:18:08 10° S visible
07 Jun 8.9 04:45:57 10° NE 04:48:54 24° E 04:51:50 10° SSE visible
